Home > Weather > Melle > Past weeks

Flag for Germany Past Weather in Melle, Lower Saxony, Germany — Yesterday and Last 2 Weeks

Now
75 °F

Passing clouds.


Feels Like: 77 °F
Forecast: 66 / 89 °F
Wind: 5 mph from Southeast

Location: Muenster / Osnabrueck

Current Time: Aug 24, 2016 at 11:54:47 PM

Latest Report: Aug 24, 2016 at 11:20 PM


Visibility: N/A

Pressure: 30.09 "Hg

Humidity: 61%

Dew Point: 61 °F

Location of MelleLocation

Past Weather in Melle — Graph

°F

Melle Temperature Yesterday

Maximum temperature yesterday: 81 °F (at 5:20 PM)
Minimum temperature yesterday: 57 °F (at 12:50 AM)
Average temperature yesterday: 69 °F

High & Low Weather Summary for the Past Weeks

 TemperatureHumidityPressure
High88 °F (Aug 24, 4:50 PM)100% (Aug 10, 11:50 PM)30.33 "Hg (Aug 10, 11:50 PM)
Low43 °F (Aug 11, 3:20 AM)34% (Aug 18, 4:50 PM)29.77 "Hg (Aug 19, 5:20 PM)
Average63 °F76%30.09 "Hg
* Reported Aug 9 10:20 PM — Aug 24 10:50 PM, Melle, Weather by CustomWeather, © 2016

Note: Actual official high and low records may vary slightly from our data, if they occured in-between our weather recording intervals... More about our weather records

Advertising

Melle Weather History for the Previous 24 Hours

Scroll right to see more
 ConditionsComfort  
Time TempWeatherWind HumidityBarometerVisibility
10:50 PM
Wed, Aug 24
77 °FPassing clouds.5 mph57%30.12 "HgN/A
10:20 PM75 °FPassing clouds.3 mph61%30.12 "HgN/A
9:50 PM75 °FPassing clouds.3 mph65%30.12 "HgN/A
9:20 PM79 °FPassing clouds.5 mph58%30.12 "HgN/A
8:50 PM77 °FPassing clouds.3 mph65%30.12 "HgN/A
8:20 PM81 °FPassing clouds.3 mph54%30.12 "HgN/A
7:50 PM82 °FPassing clouds.3 mph55%30.12 "HgN/A
7:20 PM86 °FSunny.2 mph46%30.12 "Hg10 mi
6:50 PM86 °FSunny.2 mph49%30.12 "Hg10 mi
6:20 PM86 °FPassing clouds.3 mph46%30.12 "HgN/A
5:50 PM88 °FPassing clouds.3 mph40%30.12 "HgN/A
5:20 PM88 °FSunny.3 mph43%30.12 "Hg10 mi
4:50 PM88 °FPassing clouds.3 mph40%30.15 "HgN/A
4:20 PM86 °FPassing clouds.5 mph43%30.15 "HgN/A
3:50 PM86 °FPassing clouds.7 mph40%30.15 "HgN/A
3:20 PM86 °FPassing clouds.7 mph43%30.15 "HgN/A
2:50 PM86 °FPassing clouds.8 mph43%30.15 "HgN/A
2:20 PM84 °FPassing clouds.8 mph43%30.18 "HgN/A
1:50 PM84 °FPassing clouds.7 mph48%30.18 "HgN/A
1:20 PM82 °FPassing clouds.7 mph51%30.18 "HgN/A
12:50 PM82 °FPassing clouds.6 mph51%30.18 "HgN/A
12:20 PM81 °FPassing clouds.7 mph54%30.21 "HgN/A
11:50 AM81 °FPassing clouds.5 mph51%30.21 "HgN/A
11:20 AM77 °FPassing clouds.5 mph57%30.21 "HgN/A
10:50 AM77 °FPassing clouds.5 mph61%30.21 "HgN/A
10:20 AM75 °FPassing clouds.3 mph65%30.21 "HgN/A
9:50 AM73 °FPassing clouds.3 mph69%30.21 "HgN/A
9:20 AM72 °FPassing clouds.5 mph69%30.21 "HgN/A
8:50 AM70 °FSunny.5 mph73%30.21 "Hg10 mi
8:20 AM68 °FSunny.3 mph78%30.21 "Hg10 mi
7:50 AM66 °FPassing clouds.5 mph78%30.21 "HgN/A
7:20 AM64 °FPassing clouds.5 mph83%30.21 "HgN/A
6:50 AM63 °FClear.2 mph88%30.21 "Hg10 mi
6:20 AM63 °FPassing clouds.3 mph88%30.21 "HgN/A
5:50 AM63 °FClear.2 mph88%30.21 "Hg10 mi
5:20 AM64 °FClear.2 mph83%30.21 "Hg10 mi
4:50 AM64 °FPassing clouds.3 mph88%30.21 "HgN/A
4:20 AM64 °FPassing clouds.5 mph88%30.21 "HgN/A
3:50 AM66 °FPassing clouds.3 mph83%30.21 "HgN/A
3:20 AM64 °FClear.2 mph88%30.24 "Hg10 mi
2:50 AM64 °FClear.2 mph88%30.24 "Hg10 mi
2:20 AM66 °FClear.3 mph83%30.24 "Hg10 mi
1:50 AM66 °FClear.3 mph83%30.24 "Hg10 mi
1:20 AM66 °FClear.2 mph83%30.24 "Hg10 mi
12:50 AM66 °FClear.2 mph83%30.24 "Hg10 mi
12:20 AM64 °FClear.2 mph88%30.27 "Hg10 mi
11:50 PM
Tue, Aug 23
68 °FClear.2 mph78%30.27 "Hg10 mi
11:20 PM68 °FPassing clouds.3 mph83%30.27 "HgN/A
Weather by CustomWeather, © 2016

See weather overviewHow to use our weather pages